This demonstration page uses our WeatherBlox Daily Observations layout. Learn more.

Left ArrowRight Arrow

Hourly Observations for April 27, 2016

Temp ( °F °C ) Dew Point ( °F °C ) Humidity (%) Winds ( mph kmh ) Pressure ( in mb ) Visibility ( mi km ) Precip ( " mm )
12:53 am 00:53 Clear 58 14.4 40 4.4 51 51 Calm 29.92 1013 10 16 0.00 0.00
1:53 am 01:53 Clear 53 11.7 44 6.7 72 72 Calm 29.92 1013 10 16 0.00 0.00
2:53 am 02:53 Clear 50 10 43 6.1 77 77 ESE 5 7 29.91 1013 10 16 0.00 0.00
3:53 am 03:53 Cloudy 51 10.6 43 6.1 74 74 Calm 29.90 1013 10 16 0.00 0.00
4:53 am 04:53 Cloudy 51 10.6 43 6.1 74 74 Calm 29.90 1013 10 16 0.00 0.00
5:53 am 05:53 Cloudy 51 10.6 44 6.7 77 77 Calm 29.89 1012 10 16 0.00 0.00
6:53 am 06:53 Mostly Cloudy 51 10.6 44 6.7 77 77 Calm 29.90 1012 10 16 0.00 0.00
7:53 am 07:53 Cloudy with Light Rain 52 11.1 46 7.8 80 80 Calm 29.92 1013 10 16 0.00 0.03
8:53 am 08:53 Cloudy with Light Rain 53 11.7 44 6.7 72 72 WSW 6 9 29.93 1014 10 16 0.01 0.25
9:53 am 09:53 Cloudy 55 12.8 44 6.7 67 67 WNW 5 7 29.93 1014 10 16 0.00 0.03
10:53 am 10:53 Cloudy with Light Rain 55 12.8 48 8.9 77 77 WNW 7 11 29.93 1014 7 11 0.01 0.25
11:53 am 11:53 Mostly Cloudy 60 15.6 48 8.9 65 65 Calm 29.92 1013 10 16 0.00 0.03
12:53 pm 12:53 Mostly Cloudy 61 16.1 45 7.2 56 56 undefined N/A 29.91 1013 10 16 0.00 0.00
1:53 pm 13:53 Mostly Cloudy 63 17.2 44 6.7 50 50 Calm 29.89 1012 10 16 0.00 0.00
2:53 pm 14:53 Partly Cloudy 66 18.9 44 6.7 45 45 NE 5 7 29.86 1011 10 16 0.00 0.00
3:53 pm 15:53 Mostly Sunny 67 19.4 44 6.7 44 44 SE 5 7 29.84 1010 10 16 0.00 0.00
4:53 pm 16:53 Mostly Sunny 69 20.6 43 6.1 39 39 NE 9 15 29.82 1010 10 16 0.00 0.00
5:53 pm 17:53 Sunny 68 20 44 6.7 42 42 VRB 5 7 29.80 1009 10 16 0.00 0.00
6:53 pm 18:53 Sunny 66 18.9 45 7.2 47 47 N 6 9 29.80 1009 10 16 0.00 0.00
7:53 pm 19:53 Sunny 63 17.2 45 7.2 52 52 WNW 6 9 29.80 1009 10 16 0.00 0.00
8:53 pm 20:53 Clear 62 16.7 44 6.7 52 52 NW 6 9 29.83 1010 10 16 0.00 0.00
9:53 pm 21:53 Clear 61 16.1 44 6.7 54 54 NW 7 11 29.85 1011 10 16 0.00 0.00
10:53 pm 22:53 Clear 57 13.9 45 7.2 64 64 N 5 7 29.86 1011 10 16 0.00 0.00
11:53 pm 23:53 Clear 58 14.4 43 6.1 58 58 NNW 7 11 29.86 1011 10 16 0.00 0.00

Powered by AerisWeather